This is the latest recevied weather packets stored in our database for station/object VK2BLR. If no packets are shown the sender has not sent any weather packets the latest 10 day(s).
| Time | Temp. | Humidity | Pressure | Rain* | Wind** | Luminosity | Snow |
|---|---|---|---|---|---|---|---|
| 1787672192 | 13.89° C | 94% | 1015.9 hPa | 0 mm | - | - | - |
| 1787671292 | 14.44° C | 95% | 1016 hPa | 0 mm | - | - | - |
| 1787670391 | 14.44° C | 95% | 1016 hPa | 0 mm | - | - | - |
| 1787669491 | 14.44° C | 95% | 1015.8 hPa | 0 mm | - | - | - |
| 1787668590 | 14.44° C | 94% | 1015.9 hPa | 0 mm | - | - | - |
| 1787667692 | 14.44° C | 94% | 1015.8 hPa | 0.25 mm | - | - | - |
| 1787666791 | 14.44° C | 94% | 1015.7 hPa | 1.02 mm | - | - | - |
| 1787665891 | 14.44° C | 94% | 1015.5 hPa | 3.56 mm | - | - | - |
| 1787664991 | 14.44° C | 94% | 1015.5 hPa | 6.86 mm | - | - | - |
| 1787664092 | 14.44° C | 94% | 1015.6 hPa | 6.6 mm | - | - | - |
| 1787663191 | 14.44° C | 94% | 1015.6 hPa | 6.1 mm | - | - | - |
| 1787662290 | 14.44° C | 94% | 1015.7 hPa | 3.3 mm | - | - | - |
| 1787661390 | 14.44° C | 94% | 1015.8 hPa | 0 mm | - | - | - |
| 1787660491 | 14.44° C | 94% | 1015.8 hPa | 0 mm | - | - | - |
| 1787659592 | 14.44° C | 94% | 1015.8 hPa | 0 mm | - | - | - |
| 1787658691 | 14.44° C | 94% | 1015.6 hPa | 0 mm | - | - | - |
| 1787657792 | 14.44° C | 94% | 1015.8 hPa | 0 mm | - | - | - |
| 1787656891 | 14.44° C | 94% | 1015.8 hPa | 0 mm | - | - | - |
| 1787655992 | 14.44° C | 94% | 1015.6 hPa | 0 mm | - | - | - |
| 1787655091 | 14.44° C | 94% | 1015.6 hPa | 0 mm | - | - | - |
| 1787654191 | 14.44° C | 94% | 1015.6 hPa | 0 mm | - | - | - |
| 1787653290 | 14.44° C | 94% | 1015.5 hPa | 0 mm | - | - | - |
| 1787652391 | 14.44° C | 93% | 1015.4 hPa | 0 mm | - | - | - |
| 1787651492 | 14.44° C | 93% | 1015.3 hPa | 0 mm | - | - | - |
| 1787650591 | 14.44° C | 93% | 1015.2 hPa | 0 mm | - | - | - |
* Rain latest hour (hover to see other rain measurements)
** Current wind speed in m/s (hover to see current wind gust speed)